| time (UTC) | temp F | wind direction | speed MPH | gust MPH | rain 1hr in | rain 24hr in | rain mn in | humidity % | barometer mb |
| 20260504000516 | 61 | 0.0 | 0.0 | 0.00 | 0.08 | 0.02 | 67 | 1014.2 | |
| 20260503235516 | 62 | 0.0 | 0.0 | 0.00 | 0.08 | 0.02 | 64 | 1014.2 | |
| 20260503234516 | 62 | 0.0 | 0.0 | 0.00 | 0.08 | 0.02 | 60 | 1014.2 | |
| 20260503233517 | 63 | 0.0 | 0.0 | 0.00 | 0.08 | 0.02 | 60 | 1014.2 | |
| 20260503232516 | 64 | 0.0 | 0.0 | 0.00 | 0.08 | 0.02 | 59 | 1014.3 | |
| 20260503231616 | 65 | 0.0 | 0.0 | 0.00 | 0.08 | 0.02 | 59 | 1014.4 | |
| 20260503230516 | 66 | 0.0 | 1.0 | 0.00 | 0.08 | 0.02 | 59 | 1014.4 | |
| 20260503225516 | 67 | 0.0 | 1.0 | 0.00 | 0.08 | 0.02 | 51 | 1014.6 | |
| 20260503224516 | 69 | 0.0 | 2.0 | 0.00 | 0.08 | 0.02 | 50 | 1014.6 | |
| 20260503223535 | 69 | 0.0 | 1.0 | 0.00 | 0.08 | 0.02 | 49 | 1014.6 | |
| 20260503222515 | 69 | 180 | 1.0 | 3.0 | 0.00 | 0.08 | 0.02 | 46 | 1014.6 |
| 20260503221516 | 69 | 0.0 | 2.0 | 0.00 | 0.08 | 0.02 | 47 | 1014.6 | |
| 20260503220515 | 70 | 225 | 1.0 | 3.0 | 0.00 | 0.08 | 0.02 | 50 | 1014.6 |
| 20260503215515 | 70 | 225 | 1.0 | 5.0 | 0.00 | 0.08 | 0.02 | 42 | 1014.6 |
| 20260503214515 | 70 | 0.0 | 2.0 | 0.00 | 0.08 | 0.02 | 42 | 1014.6 | |
| 20260503213540 | 69 | 203 | 1.0 | 4.0 | 0.00 | 0.08 | 0.02 | 44 | 1014.6 |
| 20260503212515 | 70 | 158 | 1.0 | 5.0 | 0.00 | 0.08 | 0.02 | 42 | 1014.8 |
| 20260503211517 | 70 | 203 | 1.0 | 4.0 | 0.00 | 0.08 | 0.02 | 48 | 1014.7 |
| 20260503210538 | 70 | 225 | 1.0 | 4.0 | 0.00 | 0.08 | 0.02 | 43 | 1014.8 |
| 20260503205517 | 70 | 113 | 1.0 | 5.0 | 0.00 | 0.08 | 0.02 | 48 | 1015.0 |
| 20260503204517 | 70 | 158 | 1.0 | 5.0 | 0.00 | 0.08 | 0.02 | 47 | 1015.1 |
| 20260503203517 | 70 | 0.0 | 2.0 | 0.00 | 0.08 | 0.02 | 43 | 1015.1 | |
| 20260503202517 | 70 | 180 | 1.0 | 5.0 | 0.00 | 0.08 | 0.02 | 43 | 1015.3 |
| 20260503201537 | 70 | 90 | 1.0 | 7.0 | 0.00 | 0.08 | 0.02 | 47 | 1015.5 |
| 20260503200517 | 69 | 0.0 | 3.0 | 0.00 | 0.08 | 0.02 | 44 | 1015.8 | |
| 20260503195517 | 69 | 180 | 1.0 | 4.0 | 0.00 | 0.08 | 0.02 | 52 | 1016.0 |
| 20260503194524 | 69 | 158 | 1.0 | 5.0 | 0.00 | 0.08 | 0.02 | 47 | 1016.1 |
| 20260503193517 | 69 | 315 | 1.0 | 5.0 | 0.00 | 0.08 | 0.02 | 46 | 1016.2 |
| 20260503192517 | 68 | 0.0 | 2.0 | 0.00 | 0.08 | 0.02 | 47 | 1016.5 | |
| 20260503191537 | 68 | 0.0 | 2.0 | 0.00 | 0.08 | 0.02 | 48 | 1016.7 | |
| 20260503190517 | 68 | 0.0 | 1.0 | 0.00 | 0.08 | 0.02 | 55 | 1016.9 | |
| 20260503185522 | 67 | 0.0 | 1.0 | 0.00 | 0.08 | 0.02 | 47 | 1017.0 | |
| 20260503184517 | 68 | 293 | 1.0 | 4.0 | 0.00 | 0.08 | 0.02 | 48 | 1017.1 |
| 20260503183517 | 67 | 315 | 1.0 | 5.0 | 0.00 | 0.08 | 0.02 | 46 | 1017.1 |
| 20260503182617 | 67 | 0.0 | 5.0 | 0.00 | 0.08 | 0.02 | 52 | 1017.2 | |
| 20260503181517 | 67 | 45 | 1.0 | 5.0 | 0.00 | 0.08 | 0.02 | 46 | 1017.2 |
| 20260503180517 | 67 | 248 | 1.0 | 5.0 | 0.00 | 0.08 | 0.02 | 46 | 1017.3 |
| 20260503175517 | 67 | 293 | 1.0 | 8.0 | 0.00 | 0.08 | 0.02 | 49 | 1017.3 |
| 20260503174517 | 66 | 315 | 2.0 | 7.0 | 0.00 | 0.08 | 0.02 | 55 | 1017.4 |
| 20260503173537 | 65 | 0.0 | 1.0 | 0.00 | 0.08 | 0.02 | 55 | 1017.5 | |
| 20260503172517 | 65 | 270 | 1.0 | 5.0 | 0.00 | 0.08 | 0.02 | 53 | 1017.7 |
| 20260503171517 | 64 | 0.0 | 2.0 | 0.00 | 0.08 | 0.02 | 51 | 1017.7 | |
| 20260503170517 | 63 | 0.0 | 1.0 | 0.00 | 0.08 | 0.02 | 57 | 1017.9 | |
| 20260503150536 | 61 | 203 | 1.0 | 4.0 | 0.00 | 0.08 | 0.02 | 59 | 1018.8 |
| 20260503130536 | 49 | 0.0 | 1.0 | 0.01 | 0.08 | 0.02 | 18 | 1018.0 | |
| 20260503110536 | 43 | 0.0 | 0.0 | 0.00 | 0.12 | 0.01 | 26 | 1016.8 | |
| 20260503081516 | 45 | 0.0 | 0.0 | 0.00 | 0.21 | 0.01 | 25 | 1015.0 | |
| 20260503080516 | 46 | 0.0 | 0.0 | 0.00 | 0.21 | 0.01 | 24 | 1014.9 | |
| 20260503072515 | 47 | 0.0 | 0.0 | 0.00 | 0.22 | 0.01 | 22 | 1014.5 | |
| 20260503071516 | 47 | 0.0 | 0.0 | 0.00 | 0.22 | 0.01 | 22 | 1014.4 | |
| 20260503070516 | 47 | 0.0 | 0.0 | 0.00 | 0.22 | 0.01 | 22 | 1014.3 | |
| 20260503054517 | 49 | 0.0 | 0.0 | 0.01 | 0.22 | 0.01 | 22 | 1014.2 | |
| 20260503053538 | 49 | 0.0 | 0.0 | 0.01 | 0.22 | 0.01 | 22 | 1014.3 | |
| 20260503052517 | 49 | 0.0 | 0.0 | 0.01 | 0.22 | 0.01 | 22 | 1014.3 | |
| 20260503051517 | 49 | 0.0 | 0.0 | 0.01 | 0.22 | 0.01 | 22 | 1014.2 | |
| 20260503050517 | 49 | 0.0 | 0.0 | 0.00 | 0.21 | 0.00 | 22 | 1014.2 | |
| 20260503045517 | 50 | 0.0 | 0.0 | 0.00 | 0.21 | 0.00 | 22 | 1014.1 | |
| 20260503044517 | 50 | 0.0 | 0.0 | 0.00 | 0.21 | 0.00 | 22 | 1014.0 | |
| 20260503043517 | 50 | 0.0 | 0.0 | 0.00 | 0.21 | 0.00 | 23 | 1014.1 | |
| 20260503042517 | 50 | 0.0 | 0.0 | 0.00 | 0.21 | 0.00 | 23 | 1013.9 | |
| 20260503041517 | 50 | 0.0 | 0.0 | 0.00 | 0.21 | 0.00 | 23 | 1013.7 | |
| 20260503040517 | 51 | 0.0 | 0.0 | 0.00 | 0.21 | 0.00 | 23 | 1013.8 | |
| 20260503035517 | 51 | 0.0 | 0.0 | 0.00 | 0.21 | 0.21 | 23 | 1013.7 | |
| 20260503034516 | 52 | 0.0 | 0.0 | 0.00 | 0.21 | 0.21 | 22 | 1013.6 | |
| 20260503033516 | 52 | 0.0 | 0.0 | 0.00 | 0.21 | 0.21 | 21 | 1013.5 | |
| 20260503032516 | 52 | 0.0 | 0.0 | 0.00 | 0.21 | 0.21 | 22 | 1013.5 | |
| 20260503031516 | 53 | 0.0 | 0.0 | 0.00 | 0.21 | 0.21 | 20 | 1013.5 | |
| 20260503030557 | 53 | 0.0 | 0.0 | 0.00 | 0.21 | 0.21 | 20 | 1013.4 | |
| 20260503025516 | 54 | 0.0 | 0.0 | 0.00 | 0.21 | 0.21 | 19 | 1013.3 | |
| 20260503024516 | 54 | 0.0 | 0.0 | 0.00 | 0.21 | 0.21 | 19 | 1013.3 | |
| 20260503023516 | 54 | 0.0 | 0.0 | 0.00 | 0.21 | 0.21 | 19 | 1013.1 | |
| 20260503022516 | 54 | 0.0 | 0.0 | 0.00 | 0.21 | 0.21 | 19 | 1012.8 | |
| 20260503021516 | 54 | 0.0 | 0.0 | 0.00 | 0.21 | 0.21 | 19 | 1012.6 | |
| 20260503020516 | 54 | 0.0 | 0.0 | 0.00 | 0.21 | 0.21 | 19 | 1012.5 | |
| 20260503015536 | 55 | 0.0 | 0.0 | 0.01 | 0.21 | 0.21 | 19 | 1012.4 | |
| 20260503014516 | 55 | 0.0 | 1.0 | 0.03 | 0.21 | 0.21 | 20 | 1012.1 | |
| 20260503013516 | 55 | 0.0 | 1.0 | 0.04 | 0.21 | 0.21 | 21 | 1011.8 | |
| 20260503012536 | 55 | 0.0 | 1.0 | 0.06 | 0.21 | 0.21 | 21 | 1011.6 | |
| 20260503011516 | 55 | 0.0 | 1.0 | 0.06 | 0.21 | 0.21 | 23 | 1011.4 | |
| 20260503010516 | 55 | 0.0 | 1.0 | 0.06 | 0.21 | 0.21 | 25 | 1011.3 | |
| 20260503005516 | 56 | 203 | 1.0 | 3.0 | 0.05 | 0.20 | 0.20 | 28 | 1011.1 |
| 20260503004516 | 56 | 180 | 1.0 | 4.0 | 0.03 | 0.18 | 0.18 | 32 | 1011.4 |
| 20260503003536 | 57 | 0.0 | 0.0 | 0.02 | 0.17 | 0.17 | 37 | 1011.3 | |
| 20260503002516 | 58 | 0.0 | 2.0 | 0.00 | 0.15 | 0.15 | 45 | 1011.1 | |
| 20260503001536 | 58 | 0.0 | 0.0 | 0.00 | 0.15 | 0.15 | 51 | 1010.8 |